Location: Tierra del Sol
(32.6128°N, 116.3319°W)
Time: 06:39:26
(UTC-08:00)

Daily predictions for brighter satellites

Satellite Brightness Start Highest point End
(mag) Time Altitude Azimuth Time Altitude Azimuth Time Altitude Azimuth
Cosmos 1544 Rocket 4.3 16:59:26 10° NNW 17:03:50 60° W 17:08:13 10° S
Cosmos 2297 3.8 16:59:49 10° SSW 17:05:28 85° WNW 17:11:07 10° NNE
SJ-12 4.0 17:02:37 10° SSE 17:06:38 59° ENE 17:10:41 10° N
Abrixas 3.9 17:07:49 10° NNW 17:10:10 21° NNE 17:12:29 10° E
NOSS 7 (E) 4.4 17:07:09 10° SSW 17:10:53 71° ESE 17:14:11 10° NE
Cosmos 921 Rocket 2.9 17:06:50 10° S 17:11:04 77° ESE 17:15:23 10° NNE
NOSS 2-1 (D) 3.6 17:07:20 10° SW 17:11:06 65° WNW 17:15:08 10° NNE
NOSS 2-1 (C) 3.6 17:07:59 10° SW 17:11:47 67° WNW 17:15:50 10° NNE
COSMO-SKYMED 1 3.5 17:08:12 10° NE 17:11:59 29° E 17:15:45 10° SSE
Cosmos 2218 Rocket 4.5 17:06:28 10° NNW 17:12:38 67° W 17:18:43 10° S
Cosmos 1025 Rocket 4.0 17:09:23 10° SSE 17:13:07 28° E 17:16:52 10° NNE
Cosmos 2278 Rocket 3.9 17:08:53 10° SW 17:13:51 32° WNW 17:18:52 10° N
Okean 1 4.3 17:10:34 10° SSW 17:14:30 52° W 17:18:29 10° N
Cosmos 1666 4.4 17:13:14 10° NE 17:15:31 15° ENE 17:17:47 10° ESE
Genesis I 3.3 17:13:30 10° NNW 17:17:25 80° WSW 17:21:17 10° SSE
Cosmos 1346 Rocket 3.2 17:13:42 10° SSW 17:17:34 66° W 17:21:26 10° N
NOSS 7 (D) 4.4 17:18:27 10° SSW 17:22:13 89° SE 17:25:33 10° NNE
IDEFIX/ARIANE 42P 2.5 17:17:11 10° SSE 17:22:23 82° ENE 17:27:35 10° N
ASTRO F (AKARI) 4.2 17:24:13 10° NNE 17:27:22 82° ESE 17:30:35 10° S
Thor Agena Rocket 4.2 17:22:54 10° N 17:28:05 61° WNW 17:33:16 10° SSW
NOSS 2-1 (E) 4.3 17:26:51 10° SW 17:30:32 43° NW 17:34:32 10° NNE
YAOGAN 1 2.6 17:26:34 10° SSE 17:30:53 85° WSW 17:35:14 10° NNW
Cosmos 1821 Rocket 4.2 17:28:08 10° N 17:33:54 43° E 17:39:41 10° SSE
Cosmos 1833 Rocket 2.7 17:28:58 10° N 17:34:30 55° ENE 17:39:59 10° SE
Cosmos 1500 4.0 17:33:16 10° NNW 17:37:02 56° W 17:40:49 10° S
Cosmos 1743 2.6 17:36:07 10° N 17:39:57 65° E 17:43:44 10° SSE
Timation 2 Rocket 4.2 17:33:45 10° NNW 17:40:41 83° ENE 17:47:32 10° SSE
CZ-2C R/B 3.2 17:37:46 10° S 17:42:41 58° W 17:47:45 10° NNW
COSMOS 2441 4.3 17:38:53 10° SSE 17:43:43 73° ENE 17:48:36 10° N
Cosmos 2082 Rocket 2.1 17:38:25 10° NNW 17:44:07 81° ENE 17:49:48 10° SSE
Meteor 1-28 Rocket 3.7 17:41:28 14° NE 17:44:18 37° E 17:47:48 10° SSE
Meteor 2-21 Rocket 4.4 17:39:46 10° N 17:45:58 87° E 17:52:05 10° S
Meteor 2-16 Rocket 4.4 17:40:04 10° N 17:46:09 70° E 17:52:11 10° SSE
GRACE-2 4.4 17:45:38 10° S 17:48:22 61° W 17:51:07 10° N
GRACE-1 4.4 17:46:04 10° S 17:48:48 58° W 17:51:33 10° N
USA 234 4.3 17:44:18 10° NNE 17:50:18 40° NW 17:56:16 10° WSW
Cosmos 1484 Rocket 2.5 17:49:45 10° SSE 17:53:29 75° ENE 17:57:12 10° N
Delta 2 Rocket 3.3 17:53:59 10° WNW 17:57:33 55° N 17:58:58 34° ENE
SKYMED 2 3.8 17:55:46 10° N 18:00:05 70° WNW 18:04:23 10° SSW
Cosmos 2056 Rocket 3.8 17:58:56 10° SSW 18:04:17 69° WNW 18:09:35 10° N
Okean 2 3.3 18:02:09 10° S 18:06:17 76° E 18:09:32 16° N
Cosmos 407 Rocket 3.9 18:01:49 10° N 18:06:36 38° ENE 18:11:24 10° SE
Intercosmos 25 4.2 18:05:29 10° NNW 18:08:35 46° W 18:12:26 10° S
NOSS 3-4 (A) 3.9 18:01:58 10° NNW 18:08:58 56° ENE 18:16:21 10° SE
NOSS 3-4 (C) 3.9 18:02:05 10° NNW 18:09:04 56° ENE 18:16:26 10° SE
Cosmos 1892 Rocket 3.4 18:05:37 10° S 18:09:55 76° E 18:13:09 18° NNE
Tiangong 1 3.7 18:12:14 10° NNW 18:12:41 11° NNW 18:12:41 11° NNW
Cosmos 2369 Rocket 2.3 18:11:24 10° S 18:16:50 51° ESE 18:18:41 37° NE
Cosmos 1727 Rocket 4.0 18:12:09 10° S 18:18:13 58° E 18:23:21 15° NNE
NOAA 12 4.0 18:14:31 10° SSE 18:19:43 63° ENE 18:24:55 10° N
Cosmos 1726 Rocket 3.4 18:16:22 10° N 18:20:50 75° E 18:25:16 10° S
Meteor 2-9 Rocket 4.0 18:16:43 10° N 18:22:07 87° W 18:27:25 10° S
Meteor 1-15 Rocket 4.1 18:17:58 10° N 18:23:51 76° E 18:29:34 10° SSE
Cosmos 1340 2.8 18:24:14 10° SSW 18:27:59 72° W 18:28:48 51° NNW
OAO 2 Rocket 4.0 18:27:32 10° SW 18:32:21 40° SSE 18:32:46 39° SE
Cosmos 1606 Rocket 4.4 18:36:02 10° NNW 18:40:23 50° W 18:44:41 10° SSW
Cosmos 1943 Rocket 3.4 18:39:58 10° S 18:42:41 26° SSE 18:42:41 26° SSE
METEOR-M 4.1 18:41:37 10° S 18:46:57 82° WSW 18:52:19 10° NNW
Cosmos 1452 Rocket 3.9 18:48:01 10° SSW 18:53:11 59° WNW 18:54:40 42° NNW
Cosmos 1339 Rocket 4.4 18:47:32 10° S 18:53:36 79° W 18:56:45 30° N
Gbstr 26 Del rocket 4.4 19:12:25 10° SW 19:20:34 72° NW 19:21:09 69° NNW
ATLAS 3B CENTAUR R/B 3.5 19:22:17 10° W 19:37:21 52° SSW 19:37:53 51° SSW
Cosmos 2369 Rocket 4.5 19:57:12 10° WSW 20:00:33 19° WNW 20:00:33 19° WNW
FALCON 9 R/B 4.3 20:10:54 10° WNW 20:18:20 34° W 20:18:20 34° W
